Wetbulb
74.82 75.57 76.32 76.78 76.98 77.66 76.16 75.97 75.69 74.77 74.21 73.62 75.82 75.25 73.63 72.80 72.16 73.90 75.57 73.60 75.24 75.60 76.17 76.95 77.35 77.71 78.61 78.40 77.25 75.97 74.60 73.37 72.61 72.68 72.78 74.65 74.21 74.65 75.94 75.71 74.82 74.79 75.32
75.95 75.82 76.25 76.44 76.97 77.50 78.03 77.21 76.68 75.37 75.58 75.28 73.88 74.16 74.16 74.57 74.49 74.42 73.81 76.35 75.10 75.54 76.13 76.72 76.90 77.73 78.44 77.50 76.55 75.00 74.22 73.31 72.78 72.35 73.21 74.47 74.60 74.21 74.45 75.06 75.13 74.86 74.39
76.24 75.87 75.99 76.55 76.73 77.57 78.27 78.33 76.91 75.85 75.65 75.80 75.88 76.78 77.17 76.73 76.73 75.71 75.53 74.59 74.80 74.60 75.02 76.37 77.17 78.21 77.99 77.09 76.29 75.11 74.54 74.22 73.82 73.59 73.17 72.96 73.36 73.99 73.68 74.07 74.80 74.93 73.96
75.75 76.00 76.26 76.56 77.86 78.44 78.55 78.19 76.01 74.61 75.13 75.88 76.13 76.21 75.91 76.01 75.82 75.98 73.69 72.92 72.34 74.49 75.21 74.36 75.49 77.85 77.64 76.57 76.24 75.42 75.10 74.71 74.57 74.67 74.52 74.13 74.44 74.07 73.75 73.54 74.13 74.34 74.34
75.24 76.18 75.93 76.82 78.39 78.35 77.81 77.68 76.27 75.66 75.43 75.69 75.20 75.75 76.01 76.27 75.07 74.23 72.70 72.32 72.55 72.94 74.15 73.69 73.15 74.94 76.36 76.52 76.11 75.70 75.21 75.26 74.92 74.61 75.02 75.24 75.22 75.04 74.17 74.44 74.37 73.87 73.07
74.37 76.17 76.37 76.79 77.55 78.18 77.98 76.93 76.55 75.68 75.93 75.27 73.61 74.08 75.00 75.91 76.22 75.40 74.11 73.12 70.96 70.21 73.28 74.08 74.41 74.06 74.18 76.02 75.66 75.51 75.46 75.75 75.04 74.69 74.84 74.84 74.89 74.94 74.54 74.51 73.64 73.37 73.07
76.32 76.69 76.27 75.91 77.27 77.78 78.05 76.99 75.59 74.66 73.62 74.73 72.95 74.00 73.94 74.13 74.30 73.98 73.01 72.14 71.08 70.91 74.01 73.39 74.44 73.87 75.31 74.97 75.77 75.06 75.71 75.71 74.82 74.69 74.41 74.18 74.27 74.37 74.20 73.90 73.91 73.49 73.05
75.93 77.40 75.43 75.11 76.52 77.61 77.33 78.19 76.57 74.66 74.07 74.04 72.89 72.91 70.96 72.85 72.75 72.77 72.22 72.02 72.85 73.39 72.79 72.86 73.35 74.08 75.41 75.97 75.66 74.71 75.17 75.62 74.86 74.31 74.19 73.91 73.66 73.94 73.86 73.68 73.51 73.62 72.98
74.81 77.41 75.05 76.15 76.94 78.02 76.35 76.04 76.50 74.59 73.83 72.79 72.85 72.12 69.08 66.87 69.63 71.56 71.20 72.58 72.17 73.42 73.67 74.11 74.34 74.99 75.28 75.66 76.00 75.13 74.42 75.46 74.84 74.41 73.94 73.82 73.58 73.28 73.01 73.12 73.23 73.30 73.08
76.01 76.73 76.95 76.77 77.63 77.79 77.97 76.39 74.54 75.17 73.89 71.78 72.56 71.54 71.29 70.26 67.51 67.66 70.44 71.62 72.07 72.75 74.19 75.14 75.27 75.16 75.30 75.65 75.23 73.92 73.59 75.02 74.74 74.36 73.89 73.74 73.57 73.34 72.65 72.38 72.07 72.02 72.30
76.52 74.81 77.07 77.07 77.29 77.26 78.53 77.21 73.78 74.35 72.88 71.95 71.34 71.89 72.81 71.48 71.64 69.83 67.35 68.85 71.99 73.34 73.94 74.56 75.07 75.96 76.13 76.26 76.65 74.77 72.95 73.87 74.83 74.66 74.09 73.79 73.52 73.05 72.95 72.11 71.02 71.29 71.54
75.60 76.13 75.94 77.41 77.91 76.84 77.83 78.09 76.07 75.25 76.12 75.13 74.58 73.40 72.76 72.30 71.74 71.09 71.24 71.58 70.92 73.01 74.51 75.31 75.34 75.94 77.20 77.14 75.38 74.44 73.15 72.76 73.57 73.80 74.13 74.38 73.82 73.44 73.09 72.33 71.72 71.21 70.84
73.57 75.58 76.52 76.57 78.27 77.41 76.96 78.49 78.45 77.85 76.74 76.27 76.36 75.02 75.43 75.01 73.96 72.73 72.07 72.24 71.51 73.41 73.85 75.34 75.17 76.71 77.09 78.46 77.15 74.79 73.37 71.76 71.59 72.84 72.60 73.28 73.49 73.92 73.84 73.24 72.69 71.87 71.13
74.17 75.86 76.35 76.51 76.76 77.16 77.28 78.19 77.33 76.88 78.05 77.46 76.68 77.29 76.79 75.99 74.56 74.09 72.72 71.70 71.21 71.63 73.98 73.65 76.21 76.46 77.80 77.37 75.99 74.07 75.74 70.91 70.53 70.08 70.75 71.70 72.52 73.23 73.48 73.83 73.64 72.97 72.43
74.76 75.29 75.44 75.96 76.40 76.57 77.24 77.26 76.57 76.63 77.27 77.91 77.61 77.32 76.93 76.86 75.70 75.42 74.82 73.91 72.21 69.16 70.13 73.96 73.89 76.83 77.34 77.83 76.10 77.80 77.24 70.05 70.25 69.49 68.99 69.08 70.42 71.95 72.53 72.57 72.28 72.00 71.75
75.87 75.57 75.74 75.62 75.71 76.21 76.77 77.46 76.68 76.82 76.57 76.59 78.11 77.03 76.63 77.13 76.66 76.74 76.47 76.48 74.61 73.16 69.88 74.79 74.81 76.10 77.43 76.85 76.55 78.00 76.53 72.84 70.22 69.26 68.37 67.79 68.17 68.97 70.22 71.33 71.12 70.86 70.90
76.38 75.90 76.42 76.71 76.54 76.02 76.32 76.84 77.29 76.71 76.36 76.31 77.07 76.78 76.43 76.76 75.51 77.31 77.18 76.44 75.67 74.62 71.53 74.58 76.25 77.00 77.02 76.66 76.86 77.43 77.21 77.77 76.16 69.03 68.57 67.73 66.87 67.08 67.68 68.24 68.42 69.30 70.02
76.62 76.50 76.42 76.36 76.32 76.17 76.54 76.39 75.80 75.32 75.54 75.13 75.18 75.56 75.55 75.15 76.28 76.75 75.97 76.02 75.51 76.02 73.49 72.87 76.30 76.10 76.26 77.20 76.90 77.04 75.97 76.58 77.17 69.25 67.61 67.28 66.81 66.49 65.56 65.05 64.89 65.35 66.09
76.06 76.12 75.86 75.86 76.36 76.09 75.80 76.26 76.02 75.62 75.29 75.34 75.38 75.35 75.03 75.60 76.04 76.38 76.02 74.89 74.99 75.27 75.12 72.97 72.79 75.73 76.18 75.99 76.25 76.43 76.72 76.79 76.17 70.20 67.63 66.94 65.58 64.58 63.54 63.07 63.32 61.90 61.26
75.72 75.78 76.17 75.69 75.52 75.82 75.92 75.81 76.05 76.04 75.68 75.05 75.58 75.24 75.79 75.02 75.15 76.02 76.00 76.16 75.46 74.36 74.12 72.39 72.33 73.65 74.91 76.74 76.72 74.71 73.67 75.09 73.87 74.21 70.85 69.81 66.88 65.69 63.80 63.35 63.02 62.07 60.32
75.14 75.76 75.51 74.87 75.21 75.52 74.91 75.11 75.95 75.71 75.79 75.07 75.37 75.61 76.18 73.48 69.64 71.42 77.20 76.84 76.24 75.16 72.92 73.70 72.54 72.69 73.02 73.64 74.42 74.84 74.02 74.48 71.70 72.80 72.39 73.27 70.47 68.45 65.52 62.61 62.70 59.47 58.11
75.64 74.71 74.24 74.81 74.56 72.54 63.40 64.87 68.02 72.73 74.84 75.48 75.17 75.37 75.53 71.08 71.82 67.32 67.70 68.53 72.90 75.77 74.94 74.79 72.18 71.32 73.15 73.97 73.97 71.85 73.84 72.21 71.01 69.87 71.55 71.46 68.94 64.76 63.38 60.91 58.57 57.99 57.02
74.79 74.51 73.39 73.20 72.16 69.06 61.32 63.42 64.88 68.31 70.00 73.35 74.40 74.61 72.90 72.39 71.18 73.88 64.56 64.43 64.03 63.81 66.27 75.44 74.34 73.27 73.19 74.22 72.63 71.72 73.87 70.90 67.22 65.95 70.18 67.75 66.39 65.20 64.50 61.11 57.34 56.30 55.55
71.39 72.29 71.28 70.61 70.47 65.23 57.96 59.55 62.79 69.05 67.82 70.60 72.28 72.90 71.23 68.70 68.94 68.83 68.15 68.16 68.97 69.45 69.60 70.41 70.42 69.45 70.58 71.89 71.17 74.27 74.06 71.95 68.50 65.45 67.06 63.61 69.70 63.18 62.51 59.64 56.85 55.31 54.25
67.79 68.72 68.05 68.36 67.91 67.61 56.02 56.60 63.25 70.26 68.54 67.79 66.78 64.40 66.29 66.74 62.30 64.23 66.51 65.55 64.96 62.72 59.43 59.02 59.20 59.47 59.34 60.17 65.30 72.02 70.03 71.76 69.77 64.77 62.58 66.27 65.89 65.98 63.58 64.46 61.57 54.63 53.37
62.38 63.69 61.74 61.41 56.28 61.15 54.08 55.00 61.80 68.91 67.96 65.13 64.50 61.87 57.30 57.80 56.48 60.27 66.62 65.56 63.70 63.53 63.52 63.69 63.72 62.72 62.78 61.66 60.09 64.96 66.89 68.33 67.54 63.05 59.48 63.01 63.90 64.34 65.76 62.91 62.89 62.28 59.72
MSLP
1019.75 1019.66 1019.74 1019.66 1019.57 1019.43 1019.43 1019.20 1019.22 1019.22 1019.24 1019.24 1018.98 1018.82 1018.71 1019.09 1019.32 1019.19 1019.11 1019.44 1019.47 1019.32 1019.18 1018.99 1018.79 1018.54 1018.25 1017.93 1017.76 1017.66 1017.40 1017.25 1017.02 1016.73 1016.45 1016.31 1016.29 1016.30 1016.53 1016.99 1017.62 1018.09 1018.62
1019.95 1019.83 1019.80 1019.61 1019.62 1019.54 1019.43 1019.35 1019.41 1019.28 1019.21 1019.11 1019.12 1019.09 1019.13 1019.16 1019.41 1019.55 1019.73 1019.28 1019.60 1019.41 1019.28 1019.04 1018.97 1018.51 1018.27 1018.02 1017.86 1017.69 1017.53 1017.35 1017.20 1016.85 1016.57 1016.48 1016.39 1016.31 1016.42 1016.78 1017.34 1017.90 1018.38
1020.17 1020.20 1020.03 1019.80 1019.78 1019.63 1019.43 1019.35 1019.49 1019.45 1019.26 1019.28 1019.38 1019.31 1019.24 1019.42 1019.38 1019.65 1019.78 1020.01 1019.51 1019.54 1019.61 1019.30 1018.96 1018.72 1018.39 1018.14 1017.92 1017.80 1017.58 1017.47 1017.27 1016.97 1016.73 1016.65 1016.56 1016.42 1016.49 1016.80 1017.36 1017.70 1018.34
1020.51 1020.31 1020.06 1019.97 1019.90 1019.61 1019.52 1019.35 1019.42 1019.64 1019.67 1019.70 1019.67 1019.66 1019.62 1019.60 1019.75 1019.96 1020.16 1019.91 1020.02 1019.50 1019.52 1019.60 1019.30 1019.00 1018.62 1018.42 1018.11 1017.82 1017.70 1017.48 1017.29 1016.97 1016.76 1016.65 1016.49 1016.37 1016.44 1016.90 1017.42 1017.62 1018.22
1020.69 1020.47 1020.21 1020.16 1019.95 1019.55 1019.47 1019.55 1019.78 1019.82 1019.84 1019.91 1019.79 1019.77 1019.84 1019.81 1019.96 1019.90 1020.38 1020.09 1020.01 1019.85 1019.81 1019.79 1019.73 1019.44 1018.90 1018.61 1018.28 1017.93 1017.78 1017.52 1017.43 1017.16 1016.93 1016.77 1016.49 1016.37 1016.62 1017.12 1017.59 1017.90 1018.60
1020.83 1020.46 1020.34 1020.32 1020.10 1019.72 1019.77 1019.83 1020.06 1020.29 1020.25 1020.10 1019.76 1019.80 1019.89 1019.85 1020.01 1020.05 1020.33 1020.33 1020.05 1020.06 1019.99 1020.07 1019.87 1019.42 1019.23 1018.84 1018.48 1018.10 1017.85 1017.57 1017.68 1017.63 1017.38 1017.16 1016.97 1016.91 1017.08 1017.53 1018.06 1018.40 1019.06
1020.87 1020.80 1020.44 1020.34 1020.32 1020.25 1020.16 1020.23 1020.44 1020.48 1020.42 1020.57 1020.09 1019.61 1019.65 1019.83 1019.96 1020.19 1020.22 1019.91 1020.05 1020.13 1019.85 1019.88 1020.04 1019.35 1018.95 1018.95 1018.77 1018.35 1018.02 1017.80 1017.99 1018.08 1017.86 1017.71 1017.65 1017.54 1017.68 1017.94 1018.43 1019.01 1019.30
1020.99 1020.81 1020.87 1020.76 1020.69 1020.51 1020.49 1020.43 1020.53 1020.49 1020.64 1020.85 1020.36 1020.14 1019.35 1019.42 1019.64 1020.08 1020.20 1020.03 1019.94 1019.56 1019.45 1019.62 1019.78 1019.59 1019.14 1018.68 1018.80 1018.59 1018.41 1018.18 1018.30 1018.46 1018.33 1018.21 1018.27 1018.20 1018.23 1018.48 1018.71 1019.13 1019.54
1021.01 1020.90 1020.94 1020.98 1020.72 1020.64 1020.48 1020.57 1020.60 1020.77 1020.60 1020.90 1021.00 1020.57 1019.78 1019.54 1019.66 1019.93 1019.94 1019.93 1019.91 1019.58 1019.48 1019.63 1019.63 1019.52 1019.15 1018.80 1018.58 1018.54 1018.79 1018.63 1018.68 1018.87 1018.87 1018.69 1018.73 1018.82 1018.85 1018.98 1019.21 1019.46 1019.69
1020.96 1020.95 1020.97 1021.00 1020.88 1020.83 1020.62 1020.77 1020.69 1020.78 1020.81 1020.77 1020.95 1021.00 1021.00 1020.75 1019.96 1019.30 1019.69 1019.66 1019.86 1019.54 1019.63 1019.25 1019.25 1019.13 1018.99 1018.72 1018.93 1019.00 1019.04 1018.99 1018.98 1019.18 1019.21 1019.16 1019.15 1019.21 1019.37 1019.52 1019.65 1019.85 1020.10
1020.95 1020.90 1020.99 1020.97 1020.91 1020.77 1020.77 1020.79 1020.99 1020.99 1021.03 1021.04 1020.96 1020.93 1020.96 1020.73 1020.80 1020.19 1019.43 1019.16 1019.31 1019.42 1019.42 1019.06 1018.96 1018.75 1018.80 1018.72 1018.56 1018.97 1019.13 1019.14 1019.20 1019.32 1019.44 1019.36 1019.38 1019.48 1019.71 1019.98 1020.16 1020.25 1020.40
1020.66 1020.89 1020.93 1020.93 1021.02 1021.08 1020.85 1020.67 1020.86 1021.05 1021.12 1021.15 1021.01 1021.09 1020.77 1020.46 1020.32 1020.24 1019.77 1019.67 1019.50 1019.19 1019.26 1018.99 1018.89 1018.82 1018.66 1018.60 1018.67 1019.09 1019.17 1019.17 1019.19 1019.32 1019.39 1019.43 1019.42 1019.62 1019.85 1020.10 1020.36 1020.50 1020.65
1020.53 1020.61 1020.72 1020.80 1020.93 1021.01 1020.98 1020.85 1020.89 1020.91 1020.89 1020.92 1021.00 1020.82 1020.85 1020.65 1020.73 1020.68 1020.38 1019.98 1019.52 1019.30 1019.02 1018.91 1018.92 1018.89 1018.57 1018.49 1018.62 1018.99 1019.12 1019.18 1019.39 1019.39 1019.56 1019.62 1019.56 1019.59 1019.78 1019.96 1020.25 1020.43 1020.58
1020.25 1020.39 1020.49 1020.54 1020.61 1020.74 1020.65 1020.79 1020.65 1020.68 1020.77 1020.88 1020.80 1020.83 1020.70 1020.65 1020.83 1020.74 1020.64 1020.30 1019.50 1019.14 1019.19 1019.26 1019.10 1018.95 1018.79 1018.73 1018.96 1019.05 1018.92 1019.24 1019.38 1019.36 1019.46 1019.67 1019.81 1019.76 1019.86 1019.99 1020.19 1020.37 1020.43
1019.95 1020.16 1020.33 1020.37 1020.29 1020.38 1020.52 1020.65 1020.63 1020.63 1020.63 1020.77 1020.81 1020.76 1020.63 1020.68 1020.72 1020.75 1020.78 1020.66 1020.08 1019.23 1019.02 1019.07 1019.06 1019.32 1019.03 1018.87 1019.19 1018.80 1018.75 1019.30 1019.36 1019.53 1019.61 1019.66 1019.79 1019.76 1019.75 1019.92 1020.11 1020.30 1020.45
1019.69 1019.82 1019.92 1020.01 1020.10 1020.19 1020.34 1020.44 1020.54 1020.54 1020.63 1020.55 1020.69 1020.75 1020.69 1020.57 1020.57 1020.59 1020.56 1020.56 1020.36 1019.93 1019.37 1019.40 1019.45 1019.49 1019.32 1018.90 1019.35 1019.06 1019.15 1019.18 1019.59 1019.48 1019.62 1019.84 1019.85 1019.97 1019.90 1019.87 1019.92 1020.12 1020.24
1019.47 1019.61 1019.66 1019.72 1019.79 1019.92 1020.01 1020.25 1020.36 1020.50 1020.59 1020.56 1020.63 1020.59 1020.57 1020.70 1020.42 1020.41 1020.51 1020.37 1020.20 1020.21 1019.60 1019.46 1019.70 1019.66 1019.57 1019.41 1019.43 1019.20 1018.93 1018.77 1019.12 1019.58 1019.47 1019.59 1019.90 1019.86 1019.83 1019.91 1020.01 1019.96 1019.99
1019.07 1019.18 1019.33 1019.46 1019.52 1019.59 1019.79 1019.89 1020.01 1020.08 1020.28 1020.43 1020.32 1020.37 1020.35 1020.25 1020.42 1020.39 1020.29 1020.37 1020.13 1020.18 1019.92 1019.60 1019.81 1019.62 1019.53 1019.57 1019.52 1019.54 1018.89 1018.67 1018.86 1019.85 1019.77 1019.80 1019.80 1019.83 1019.82 1019.64 1019.60 1019.70 1019.77
1018.89 1018.87 1019.12 1019.10 1019.19 1019.29 1019.41 1019.68 1019.77 1019.91 1020.07 1020.14 1020.18 1020.25 1020.17 1020.29 1020.39 1020.23 1020.26 1020.10 1020.02 1020.05 1019.96 1019.75 1019.49 1019.79 1019.70 1019.74 1019.58 1019.47 1019.41 1019.33 1018.93 1019.74 1019.94 1020.21 1020.23 1020.17 1020.07 1020.02 1019.80 1019.48 1019.35
1018.78 1018.68 1018.74 1018.94 1019.09 1019.27 1019.45 1019.51 1019.62 1019.75 1019.85 1020.05 1020.06 1020.10 1020.26 1020.14 1020.16 1020.27 1020.40 1020.37 1020.24 1020.12 1019.98 1019.96 1019.80 1019.74 1019.77 1019.99 1019.96 1019.60 1019.34 1019.51 1019.56 1019.31 1020.24 1020.43 1020.35 1020.36 1020.47 1020.33 1020.25 1020.13 1019.99
1018.45 1018.61 1018.68 1018.96 1019.10 1019.19 1019.43 1019.63 1019.57 1019.55 1019.67 1019.78 1019.93 1020.01 1020.09 1020.08 1020.34 1020.33 1020.39 1020.34 1020.43 1020.44 1020.04 1020.15 1019.94 1019.73 1019.60 1019.60 1019.78 1019.86 1019.64 1019.63 1020.18 1019.87 1019.80 1019.70 1020.17 1020.43 1020.95 1021.14 1021.02 1020.88 1020.69
1018.39 1018.77 1018.81 1018.96 1019.01 1019.55 1019.89 1019.95 1020.09 1019.97 1019.62 1019.66 1019.63 1019.81 1020.08 1020.46 1020.49 1020.65 1020.44 1020.24 1020.49 1020.50 1020.44 1020.16 1019.74 1019.68 1019.82 1019.81 1019.92 1019.89 1019.81 1019.65 1020.04 1020.57 1020.14 1020.29 1020.60 1021.34 1021.87 1022.42 1022.51 1021.79 1021.51
1018.36 1018.67 1019.04 1019.15 1019.31 1019.83 1019.99 1019.93 1020.02 1020.14 1020.20 1019.98 1019.71 1019.76 1020.24 1020.46 1020.20 1020.52 1020.78 1020.77 1020.83 1020.77 1020.79 1020.34 1020.13 1020.08 1020.00 1019.89 1020.25 1020.18 1020.13 1020.17 1020.50 1021.07 1020.65 1020.81 1021.51 1021.88 1022.41 1023.13 1023.13 1022.55 1022.24
1018.92 1018.76 1019.15 1019.41 1019.69 1020.16 1020.22 1020.06 1019.98 1020.05 1020.06 1019.81 1019.91 1020.07 1020.45 1020.50 1020.59 1020.68 1020.67 1021.00 1021.25 1021.23 1020.83 1020.46 1020.92 1021.12 1020.61 1020.30 1020.39 1020.28 1020.35 1020.69 1021.27 1021.34 1021.41 1021.16 1021.39 1022.18 1022.86 1023.43 1023.57 1023.26 1023.03
1019.55 1019.61 1019.47 1019.90 1020.20 1020.50 1021.02 1020.56 1020.12 1019.89 1019.94 1020.27 1020.44 1020.19 1020.74 1020.99 1020.85 1020.79 1021.16 1021.53 1021.45 1021.73 1022.24 1022.15 1022.37 1022.33 1022.08 1021.67 1021.11 1020.46 1020.26 1020.59 1020.87 1021.49 1022.33 1021.53 1021.81 1021.96 1022.27 1022.27 1023.07 1023.45 1023.45
1020.33 1020.55 1020.36 1020.36 1020.88 1021.07 1021.44 1020.68 1020.46 1020.20 1019.93 1020.32 1020.86 1021.17 1020.97 1021.47 1021.32 1021.13 1021.52 1021.77 1021.91 1021.65 1021.72 1022.08 1021.89 1021.93 1021.90 1022.04 1022.06 1021.76 1021.16 1020.62 1021.16 1021.96 1023.63 1022.87 1022.05 1021.85 1021.67 1022.43 1022.46 1022.67 1022.75
Wind_Speed
4 4 4 4 3 2 3 3 4 4 4 5 4 4 4 3 2 1 2 3 7 9 9 9 9 9 10 11 11 12 12 11 9 7 4 6 2 5 11 14 15 16 15
3 4 4 4 3 3 3 2 4 4 4 4 4 2 1 1 2 2 3 4 9 10 11 8 8 7 10 10 12 12 12 11 8 9 8 8 4 1 4 9 12 14 15
3 4 4 3 4 3 2 2 3 3 3 3 3 2 2 5 4 4 4 6 6 7 12 9 8 9 10 10 11 12 12 10 8 7 8 5 4 3 2 3 7 10 11
4 4 3 4 4 3 3 3 3 3 2 2 1 2 4 4 6 6 5 4 5 6 5 11 12 11 9 10 12 12 11 12 10 8 6 4 1 0 2 2 7 9 15
4 4 3 4 4 3 4 3 3 2 2 1 1 2 2 2 4 4 5 4 5 6 5 9 12 10 9 10 11 13 13 13 11 11 11 10 10 6 5 8 9 10 21
2 3 3 4 4 3 3 4 4 3 1 2 2 2 2 2 2 2 3 4 3 3 3 5 6 5 7 10 11 13 14 14 13 12 13 13 13 13 13 13 14 16 20
1 2 3 3 4 3 3 4 3 3 3 2 4 2 1 1 1 3 2 2 3 3 2 4 2 4 3 3 11 14 14 15 13 12 13 14 13 14 14 14 15 15 15
0 1 3 3 4 3 3 3 2 1 2 3 3 2 3 3 2 3 1 1 3 2 3 4 4 5 4 5 9 13 13 13 12 11 12 14 13 13 14 13 14 14 14
1 1 3 2 3 3 3 3 1 2 1 2 2 3 2 3 4 2 3 2 3 1 1 0 1 2 5 6 6 10 11 10 11 10 11 13 13 13 14 14 13 12 11
2 2 0 1 2 2 2 3 3 2 3 3 1 3 2 3 3 2 2 1 3 1 2 2 3 3 5 5 7 9 9 9 10 8 9 11 12 12 11 11 11 11 10
2 4 3 2 1 2 2 3 3 3 3 2 3 1 1 2 1 2 3 3 3 3 3 4 4 5 6 5 5 7 7 7 8 7 7 9 10 10 10 9 9 9 9
3 4 4 4 2 2 2 2 2 1 2 3 2 1 3 3 3 2 2 2 3 3 3 4 5 5 5 4 6 5 6 6 8 7 5 7 9 9 8 7 7 7 6
5 5 5 5 3 2 2 1 2 2 2 3 3 3 2 2 2 2 3 2 3 3 3 3 5 5 5 4 5 3 6 5 6 6 4 5 6 7 8 8 8 7 6
5 4 5 6 6 4 2 2 3 3 1 2 2 1 2 2 1 1 2 4 2 3 2 4 3 6 4 5 5 3 5 6 6 6 4 3 3 4 4 6 6 8 9
5 6 6 7 6 6 5 4 4 4 4 3 0 1 2 1 1 1 1 2 4 3 2 3 3 6 4 5 6 6 6 3 5 5 3 3 4 5 5 5 6 7 8
6 7 7 8 7 7 6 5 4 4 4 5 3 3 3 1 3 2 2 2 3 4 4 2 3 3 5 4 5 6 8 8 3 3 3 3 5 5 4 5 6 6 8
6 8 7 7 7 9 8 7 6 6 6 6 5 5 4 3 4 2 2 2 1 3 5 2 0 2 2 3 5 4 4 5 7 4 4 4 3 5 6 6 7 8 8
7 7 7 7 7 8 9 9 9 8 7 7 7 6 6 4 4 3 3 3 3 3 4 5 1 1 1 3 4 2 3 5 7 9 11 10 9 7 4 5 8 9 8
8 6 7 8 7 8 9 10 9 9 9 8 6 7 7 6 6 4 5 4 3 3 3 4 3 2 1 4 2 3 4 5 6 8 13 13 11 11 10 11 8 4 4
8 8 8 8 8 7 7 8 9 9 9 10 9 8 8 8 9 8 6 5 4 4 3 4 4 2 2 1 2 2 3 4 5 5 11 11 10 13 17 13 18 17 13
7 4 3 4 7 6 2 6 8 9 8 9 9 8 7 3 6 6 4 6 6 5 5 3 3 3 3 2 2 2 1 3 7 4 4 5 8 9 12 17 16 22 21
4 4 3 2 1 2 6 7 7 7 7 8 8 8 2 2 3 3 3 1 1 6 5 4 3 3 3 3 1 3 1 3 3 6 2 6 7 10 10 11 15 19 19
6 5 4 3 5 3 5 4 1 2 5 8 8 2 3 1 3 0 7 6 8 7 6 3 3 4 4 3 1 3 2 4 4 4 1 4 8 8 8 9 16 18 19
3 6 4 4 4 5 6 5 3 3 4 6 6 3 3 2 3 2 4 4 5 4 4 2 3 3 5 4 3 1 2 7 4 6 5 5 3 7 7 8 15 17 19
1 2 4 4 4 4 11 10 3 2 4 3 3 6 2 1 4 3 3 5 7 10 11 15 12 8 15 15 9 4 4 6 4 4 7 3 2 5 3 5 7 16 14
3 1 4 5 6 4 10 8 5 4 6 5 4 4 13 5 4 5 4 6 5 7 7 7 7 10 12 13 17 11 4 1 2 4 8 4 2 2 6 4 3 5 5
Wind_Direction
14 17 24 26 23 12 43 42 56 60 71 76 115 129 120 128 175 347 340 323 332 351 350 350 340 356 18 40 32 22 19 17 7 354 354 357 320 227 218 215 220 217 214
3 26 20 21 36 12 22 40 54 67 68 81 92 85 82 6 332 329 0 348 13 14 11 355 350 1 41 48 33 23 31 27 26 29 47 38 59 42 215 203 207 212 210
11 9 23 26 27 36 70 108 129 111 97 82 70 46 36 28 13 15 41 25 348 38 18 12 12 18 43 41 38 36 41 35 31 45 42 22 32 35 43 194 184 199 196
352 0 23 35 20 38 50 77 125 130 98 94 22 19 35 43 51 61 69 58 9 12 61 17 18 0 43 44 42 42 44 37 24 32 51 48 19 63 34 71 148 170 143
355 357 25 30 16 32 54 85 123 150 155 140 277 317 33 67 74 96 77 15 12 11 23 33 11 348 32 47 49 44 45 43 36 50 52 52 52 86 83 89 114 132 137
349 335 19 31 16 41 71 66 94 76 66 4 324 340 22 40 102 128 66 331 312 315 7 357 349 352 14 45 54 51 47 51 54 56 61 62 65 70 78 87 101 118 122
58 16 15 18 50 35 45 63 96 103 99 17 281 229 240 124 104 79 111 232 40 349 312 334 313 340 26 77 54 53 50 62 63 63 71 69 71 75 79 88 99 112 127
182 48 26 13 32 47 53 45 23 57 61 12 345 312 338 156 125 109 199 208 356 349 353 10 344 334 357 39 55 58 49 59 70 70 79 81 77 78 81 83 95 104 110
187 21 73 38 21 345 47 35 41 36 10 39 340 336 317 349 333 135 224 235 295 11 352 26 340 358 26 41 48 66 53 51 71 78 86 90 89 88 90 92 93 96 101
221 234 177 41 52 358 43 50 11 11 340 17 338 57 19 315 343 1 158 226 114 44 70 91 65 57 48 47 67 67 71 64 75 82 91 93 96 96 93 97 101 106 114
239 275 244 231 94 292 38 38 58 47 30 357 326 317 300 271 175 331 22 21 98 72 57 18 28 51 59 49 64 83 94 92 82 94 102 106 102 100 103 105 107 114 124
235 239 258 268 267 297 339 21 98 77 13 18 356 13 322 321 26 349 342 347 343 8 11 38 41 30 35 53 63 95 121 124 118 117 132 126 118 121 119 117 119 122 133
226 232 234 246 259 243 252 306 299 311 273 325 337 5 330 345 56 352 330 24 350 23 9 45 36 12 11 46 62 346 154 164 139 123 139 142 136 143 152 158 156 153 155
237 234 231 236 244 247 235 220 260 292 280 276 313 341 349 46 90 15 356 333 321 35 54 1 18 5 23 28 59 229 134 187 172 154 170 190 172 180 166 187 181 177 176
226 229 236 236 238 243 241 231 251 259 274 263 260 20 334 96 218 253 221 293 322 317 356 66 355 42 16 42 12 65 71 148 189 172 205 242 231 209 206 208 205 201 198
225 224 229 237 240 240 237 231 237 242 265 268 260 260 281 270 264 247 273 272 268 301 291 11 42 31 28 61 54 59 78 107 52 291 255 266 292 285 259 242 235 217 212
230 230 234 232 238 232 227 229 228 241 255 275 277 274 284 282 266 247 237 261 284 258 274 135 4 42 44 29 39 32 64 67 83 29 324 321 286 282 294 285 271 258 241
244 234 231 248 238 235 229 225 234 245 243 252 265 269 267 263 257 244 244 267 283 255 280 268 186 264 9 353 5 20 20 64 56 73 72 58 49 44 29 310 286 268 248
237 239 246 238 248 245 225 225 234 242 244 250 252 253 263 257 258 263 256 252 240 269 252 282 280 233 300 360 4 50 59 62 84 131 108 84 69 54 42 43 35 344 277
251 236 233 231 235 240 235 234 238 243 244 249 246 254 259 257 267 246 227 232 236 243 248 263 269 290 279 109 301 334 92 72 53 75 75 73 70 62 47 48 39 41 37
231 253 262 293 266 248 299 297 256 253 248 247 252 247 248 324 331 297 233 212 213 230 249 232 241 262 260 269 3 15 51 133 81 26 79 87 58 55 42 45 58 51 51
210 202 193 213 3 76 43 47 6 316 288 257 248 246 198 296 293 39 270 357 269 228 226 246 240 262 258 253 25 335 304 196 167 58 100 88 73 72 61 62 46 52 50
161 162 160 165 127 100 16 40 83 262 288 294 291 212 187 216 295 106 95 89 68 48 32 295 263 255 259 260 314 235 169 109 90 35 275 80 80 87 73 69 48 50 50
170 151 136 123 120 88 40 16 328 255 240 249 254 247 180 143 35 127 116 87 69 37 38 47 39 355 282 254 250 254 135 121 133 68 352 108 132 122 116 96 62 55 50
159 124 89 55 20 76 14 349 267 122 94 59 58 66 34 62 9 139 130 126 111 94 70 75 80 81 58 41 12 205 186 183 187 83 26 324 65 144 149 120 104 80 58
91 54 92 73 65 5 10 355 316 161 147 116 92 80 64 44 32 181 159 160 142 141 128 118 85 64 54 58 44 34 354 308 95 143 34 312 345 333 180 158 86 41 56